Theta_e
293 293 292 292 293 293 290 288 284 281 282 285 285 288 289 289 291 290 289 293 294 294 294 295 295 295 295 295 295 295 295 296 298 300 301 303 305 309
293 293 292 292 291 290 289 288 287 285 282 284 285 286 287 290 290 288 288 293 292 293 293 293 294 294 295 294 294 293 293 294 295 299 299 301 303 305
292 292 292 291 289 289 288 288 287 285 282 284 285 286 285 285 286 287 288 287 287 291 292 292 293 293 294 293 292 292 292 292 293 296 299 299 301 302
292 290 289 291 288 287 286 284 284 283 281 279 282 283 282 284 284 284 286 287 286 290 291 292 292 292 292 292 292 292 291 291 292 293 296 298 299 299
290 289 289 288 285 284 282 282 282 283 282 280 280 282 281 282 282 283 284 284 287 290 290 291 291 291 292 292 292 292 291 291 291 292 294 295 296 296
290 290 287 285 282 281 281 279 280 279 279 279 279 279 280 281 282 281 281 282 283 287 288 289 290 291 292 292 292 292 292 291 291 292 293 293 293 295
288 287 286 286 287 282 280 279 279 278 277 277 277 278 279 279 279 280 280 281 282 283 283 284 285 285 287 290 292 292 292 291 291 292 294 293 293 294
284 284 284 286 285 284 285 283 282 277 277 277 278 278 278 279 281 280 278 278 277 282 283 281 285 284 286 288 290 290 291 290 290 291 291 293 293 293
283 283 283 285 283 281 282 282 281 282 281 280 278 279 279 279 278 277 277 277 277 280 281 279 281 282 286 288 289 288 290 289 289 289 290 290 291 291
284 283 282 281 278 279 278 277 278 279 280 281 279 279 279 279 279 280 279 279 280 281 282 277 279 280 282 284 289 290 291 289 289 289 289 289 289 291
283 283 283 280 280 281 277 276 277 277 281 282 281 282 283 284 284 282 278 278 276 279 282 280 279 281 283 282 283 290 290 290 289 289 289 289 289 289
282 282 281 279 279 279 274 274 273 276 276 276 277 280 281 282 284 282 281 279 279 275 282 280 280 282 278 281 281 283 283 289 289 289 288 289 289 286
280 280 280 280 280 279 278 275 275 276 276 276 277 278 279 280 280 281 281 278 278 277 282 282 281 280 279 280 284 286 281 281 281 283 288 288 289 288
279 280 280 281 281 280 278 279 279 277 275 274 275 276 276 278 279 280 282 283 284 284 285 284 281 280 279 279 280 285 285 281 280 280 281 285 288 289
279 281 282 281 281 279 281 279 277 275 273 271 273 273 275 278 280 280 281 281 283 284 287 284 280 281 278 280 280 282 283 283 283 279 279 280 280 279
280 281 279 278 276 276 276 278 277 275 273 272 271 275 276 276 277 279 278 279 279 282 285 285 285 283 281 280 281 280 282 281 282 279 279 279 280 282
277 276 276 278 277 276 276 276 276 276 274 272 271 273 275 275 275 277 279 278 277 278 280 282 285 285 284 281 280 281 281 284 280 279 280 278 279 280
276 274 274 275 277 275 273 274 274 274 274 273 272 273 274 273 274 276 278 277 275 276 277 279 281 281 283 281 283 280 283 284 284 282 280 278 279 280
275 274 275 277 278 278 275 274 273 273 274 273 272 271 272 275 273 274 275 276 275 274 276 278 280 277 276 275 280 283 281 282 280 279 280 280 281 282
279 276 277 279 277 277 276 275 274 272 272 272 269 269 268 271 272 272 273 270 273 275 275 276 277 276 274 273 275 278 282 278 278 278 281 279 279 282
279 278 278 279 280 278 278 275 271 270 270 267 268 269 267 270 269 271 270 270 272 274 273 274 275 277 278 277 275 277 278 282 281 279 278 276 279 278
279 280 280 280 281 280 278 275 272 271 269 270 270 267 267 268 268 268 267 267 270 271 273 274 277 279 279 280 277 278 275 273 279 281 281 279 276 274
281 281 280 280 280 279 278 275 277 273 273 270 269 268 266 266 269 269 269 270 271 270 271 272 274 277 278 279 276 278 277 272 276 274 272 280 281 281
Wind_Speed
4 3 4 3 3 3 3 2 2 7 9 9 5 6 4 4 6 7 6 12 17 14 15 17 20 22 24 22 21 21 19 19 20 20 20 19 22 24
4 5 3 2 3 3 3 4 4 6 12 5 6 5 6 6 8 9 10 18 16 16 15 19 19 19 20 20 19 18 18 17 19 20 19 19 18 21
6 5 4 4 3 3 4 4 7 4 8 8 6 6 6 6 7 6 8 9 10 16 14 17 16 14 9 13 16 18 18 17 18 18 18 18 17 16
5 6 5 4 5 5 4 6 6 8 8 13 10 7 6 6 6 8 8 10 9 14 19 19 19 10 14 18 15 18 18 16 16 17 16 16 16 13
4 5 6 6 4 4 5 6 7 8 8 9 10 7 5 5 7 7 8 6 8 17 17 16 13 13 20 17 20 20 18 15 14 15 12 10 12 10
5 5 5 4 5 4 5 5 6 7 7 8 9 8 7 7 7 8 7 5 7 9 12 13 15 15 13 20 23 19 18 17 14 15 12 8 9 6
6 5 5 4 4 3 2 4 5 5 6 8 9 9 9 8 9 5 6 7 10 6 7 5 7 6 7 11 16 19 18 13 8 8 8 8 7 3
6 5 5 8 5 9 5 3 6 6 8 8 9 10 11 9 5 7 7 9 10 4 5 8 5 7 5 6 7 6 4 5 6 4 8 7 8 5
5 4 4 5 7 5 8 12 12 16 11 9 11 9 9 8 8 10 10 9 10 10 9 10 4 7 5 7 9 2 14 8 7 6 5 8 8 5
5 5 5 2 5 4 5 6 8 8 9 8 6 6 7 9 9 10 11 11 10 9 8 8 3 5 5 5 13 15 16 11 8 7 5 5 7 2
5 7 4 3 5 8 5 7 9 9 12 18 21 21 20 20 15 7 7 7 9 8 7 5 3 4 7 6 5 12 13 13 11 8 7 4 5 5
6 5 7 6 5 6 3 4 7 8 9 11 10 12 11 9 13 5 5 7 7 6 1 4 4 1 4 2 2 5 4 10 11 9 9 7 5 3
2 4 3 5 4 9 8 4 6 8 10 8 8 7 6 6 5 5 6 4 7 8 7 1 3 5 2 5 2 5 3 3 3 4 10 10 7 5
4 4 3 9 12 11 8 11 11 8 5 3 6 5 5 7 7 7 10 8 7 10 11 8 4 2 3 3 4 3 5 3 3 3 4 7 10 8
4 7 7 10 14 9 11 9 7 4 2 2 5 3 3 6 8 7 7 9 9 11 6 5 3 3 1 3 4 4 4 3 1 2 0 3 4 2
7 6 4 8 8 6 5 7 4 4 2 3 2 6 4 3 5 6 7 7 7 7 7 5 5 5 4 3 2 4 4 2 2 1 1 2 1 3
2 2 2 5 3 2 3 3 2 2 1 1 2 4 5 3 5 7 6 6 5 7 6 4 3 4 5 3 4 3 3 4 2 1 2 1 2 1
3 2 3 4 4 3 3 3 2 3 1 1 3 2 3 3 5 7 6 5 5 6 6 7 5 4 3 3 4 2 5 1 3 0 1 1 2 3
3 4 5 6 3 3 3 3 2 1 2 2 1 3 2 4 5 5 5 6 6 4 7 6 6 6 6 5 1 10 3 4 3 3 1 2 2 3
7 7 7 7 4 4 3 3 1 2 1 1 2 3 3 2 4 3 4 3 5 8 5 4 3 2 1 2 3 2 10 2 2 2 3 2 2 4
7 9 8 7 6 4 3 3 3 2 2 2 3 3 3 2 3 3 3 5 6 5 7 7 4 6 3 1 1 3 1 7 5 2 2 2 1 1
7 7 7 6 5 4 3 3 3 3 3 3 4 1 3 1 2 3 3 2 3 2 4 6 9 4 4 3 2 5 3 1 4 8 10 6 2 2
9 8 7 6 5 5 4 3 4 3 3 2 2 2 1 2 3 3 3 3 3 3 3 6 8 5 5 3 3 2 1 1 2 1 2 5 7 8
Wind_Direction
322 284 273 286 272 279 286 332 215 299 294 296 283 282 284 324 319 328 325 315 316 312 302 298 299 298 292 279 287 295 299 307 307 310 318 318 327 330
313 302 309 306 306 320 300 285 275 283 285 283 299 297 283 314 329 330 319 317 310 301 294 288 292 294 290 270 275 287 294 298 304 302 310 316 315 330
312 306 316 335 313 310 290 293 286 295 303 309 313 319 335 338 324 309 311 302 297 299 300 301 299 292 265 260 269 279 284 286 294 299 298 309 316 326
308 338 338 324 317 309 311 340 343 338 324 312 311 314 333 305 294 295 292 292 289 289 291 291 299 237 238 248 259 271 277 277 280 291 290 300 314 319
329 328 315 322 327 359 7 346 335 324 320 316 312 315 319 313 308 298 295 295 299 308 300 291 290 306 275 271 266 260 263 265 270 281 282 283 297 318
291 286 299 339 37 348 335 334 314 323 316 311 311 313 311 308 304 308 304 312 302 297 299 296 306 298 251 260 260 257 262 272 273 280 273 273 280 308
311 326 342 4 269 93 279 288 327 307 309 303 303 304 301 306 304 315 316 317 307 296 300 293 299 302 308 291 273 266 266 256 282 316 282 268 267 239
308 335 345 320 101 206 283 21 267 277 291 289 290 291 294 303 329 314 314 314 309 275 326 299 281 290 286 301 306 305 251 210 260 320 359 299 275 162
302 318 321 317 56 25 357 340 319 309 301 290 287 293 311 312 316 309 303 297 293 297 295 289 273 271 265 279 188 270 273 245 265 295 338 339 305 209
304 316 303 341 80 25 338 317 305 301 291 288 293 285 289 295 289 287 290 289 285 284 270 275 274 281 272 258 262 238 233 229 234 252 284 320 333 260
321 292 306 326 73 16 344 313 310 309 309 336 325 312 301 292 286 292 281 282 287 295 296 280 271 283 287 274 259 256 253 230 227 223 245 263 300 328
281 322 82 77 40 337 294 295 303 304 328 311 305 302 302 308 312 291 279 296 318 310 297 344 304 261 313 331 271 278 262 238 228 216 227 233 239 280
315 297 149 125 341 333 318 282 271 304 302 297 294 307 314 319 316 315 302 279 291 278 284 227 288 296 246 302 264 286 229 225 207 223 218 229 231 211
253 270 290 348 325 306 296 272 283 293 281 289 310 307 326 323 316 311 305 294 279 278 283 263 254 273 296 300 307 346 300 253 154 208 184 209 219 225
234 252 295 295 282 275 276 241 252 267 271 312 299 293 283 301 308 311 315 309 303 301 304 245 220 264 233 285 295 310 321 308 201 174 93 156 162 174
241 264 232 251 249 256 292 276 211 232 227 243 299 307 289 315 323 320 320 321 319 337 349 6 329 303 286 249 289 313 306 295 343 76 81 355 33 168
191 245 268 268 252 272 276 265 257 273 300 360 307 301 312 327 322 327 320 324 332 337 339 329 247 282 251 244 296 303 312 310 240 132 58 314 298 206
204 230 255 265 246 232 254 262 250 266 80 358 283 305 317 323 321 322 327 336 333 336 334 327 326 340 1 70 35 308 314 53 50 315 325 69 332 337
206 222 251 260 240 226 230 232 235 171 153 250 327 301 316 321 317 320 335 347 337 326 319 313 15 14 5 3 306 44 6 352 7 10 25 46 58 15
223 221 237 250 233 221 228 225 151 58 336 351 328 282 291 298 315 318 333 321 328 318 318 330 18 23 3 289 316 314 23 336 13 18 11 43 55 84
225 224 229 239 242 213 211 174 160 184 215 205 254 260 290 297 309 308 314 331 325 345 337 334 300 306 259 284 316 272 46 33 39 39 332 25 326 147
234 229 218 221 215 213 193 167 179 192 207 216 225 208 268 322 292 299 307 308 304 316 319 327 321 317 310 292 286 314 109 337 46 65 61 67 117 84
229 229 219 217 209 199 183 179 187 203 192 210 207 235 222 289 271 280 291 302 317 321 4 329 323 326 342 322 353 12 164 233 179 129 24 75 88 88